Flag for Canada Weather past 2 weeks in Prince Albert, Saskatchewan, Canada

Now
48 °F

Passing clouds.


Feels Like: 45 °F
Forecast: 47 / 75 °F
Wind: 7 mph from Northeast

Location: Prince Albert

Current Time: May 27, 2015 at 12:27:48 AM

Latest Report: May 27, 2015 at 12:00 AM


Visibility: 12 mi

Pressure: 30.05 "Hg

Humidity: 71%

Dew point: 39 °F

Location of Prince AlbertLocation

Historic Weather in Prince Albert — Graph

°F

Prince Albert temperature yesterday

Maximum temperature yesterday: 75 °F (at 11:00 AM)
Minimum temperature yesterday: 48 °F (at 5:00 AM)
Average temperature yesterday: 62 °F

Past Weeks' High & Low Weather Summary

 TemperatureHumidityPressure
High82 °F (May 23, 3:00 PM)100% (May 12, 6:00 AM)30.58 "Hg (May 12, 6:00 AM)
Low23 °F (May 18, 4:00 AM)14% (May 20, 11:00 AM)29.77 "Hg (May 25, 4:00 PM)
Average54 °F49%30.14 "Hg
* Reported May 11 11:00 PM — May 26 11:00 PM, Prince Albert, Weather by CustomWeather, © 2015

Note: Actual official high and low records may vary slightly from our data, if they occured in-between our weather recording intervals... More about our weather records

Advertising

Prince Albert weather history for previous 24 hours

 ConditionsComfort  
Time TempWeatherWind HumidityBarometerVisibility
11:00 PM
Tue, May 26
50 °FPassing clouds.13 mph67%30.03 "Hg12 mi
10:00 PM54 °FPassing clouds.13 mph54%30.01 "Hg4 mi
9:00 PM57 °FPartly sunny.14 mph55%29.97 "Hg7 mi
8:00 PM63 °FHigh level clouds.12 mph37%29.95 "Hg15 mi
7:00 PM66 °FPartly sunny.15 mph37%29.93 "Hg15 mi
6:00 PM68 °FPartly sunny.15 mph40%29.93 "Hg15 mi
5:00 PM70 °FPartly sunny.17 mph40%29.91 "Hg15 mi
4:00 PM72 °FPartly sunny.18 mph41%29.89 "Hg15 mi
3:00 PM73 °FScattered clouds.13 mph38%29.87 "Hg15 mi
2:00 PM75 °FPassing clouds.14 mph39%29.86 "Hg15 mi
1:00 PM73 °FPassing clouds.17 mph44%29.85 "Hg6 mi
12:00 PM75 °FScattered clouds.12 mph39%29.84 "Hg5 mi
11:00 AM75 °FPassing clouds.12 mph41%29.83 "Hg6 mi
10:00 AM70 °FScattered clouds.3 mph50%29.84 "Hg6 mi
9:00 AM64 °FBroken clouds.7 mph60%29.85 "Hg8 mi
8:00 AM59 °FBroken clouds.3 mph72%29.84 "Hg8 mi
7:00 AM54 °FPartly sunny.2 mph82%29.83 "Hg10 mi
6:00 AM50 °FOvercast.3 mph88%29.83 "Hg10 mi
5:00 AM48 °FOvercast.5 mph82%29.82 "Hg8 mi
4:00 AM52 °FOvercast.6 mph82%29.81 "Hg15 mi
3:00 AM52 °FPassing clouds.7 mph88%29.80 "Hg15 mi
2:00 AM54 °FPartly cloudy.5 mph88%29.80 "Hg15 mi
1:00 AM54 °FMostly cloudy.3 mph82%29.80 "Hg15 mi
12:00 AM52 °FPassing clouds.No wind82%29.80 "Hg15 mi
Weather by CustomWeather, © 2015

See weather overviewHow to use our weather pages